| time (UTC) | temp F | wind direction | speed knots | gust knots | rain 1hr in | rain 24hr in | rain mn in | humidity % | barometer mb |
| 20260507082024 | 70 | 300 | 5.2 | 11.3 | 0.00 | 0.07 | 0.05 | 57 | 1013.4 |
| 20260507081019 | 71 | 249 | 4.3 | 8.7 | 0.00 | 0.07 | 0.05 | 56 | 1013.4 |
| 20260507080016 | 70 | 232 | 1.7 | 2.6 | 0.00 | 0.07 | 0.05 | 59 | 1013.3 |
| 20260507075033 | 69 | 214 | 0.9 | 2.6 | 0.00 | 0.07 | 0.05 | 61 | 1013.4 |
| 20260507074042 | 70 | 256 | 1.7 | 5.2 | 0.00 | 0.07 | 0.05 | 60 | 1013.4 |
| 20260507073027 | 70 | 201 | 2.6 | 5.2 | 0.00 | 0.07 | 0.05 | 59 | 1013.4 |
| 20260507072024 | 69 | 211 | 2.6 | 3.5 | 0.00 | 0.07 | 0.05 | 62 | 1013.4 |
| 20260507071022 | 68 | 245 | 1.7 | 3.5 | 0.00 | 0.07 | 0.05 | 65 | 1013.3 |
| 20260507070019 | 68 | 214 | 1.7 | 3.5 | 0.00 | 0.07 | 0.05 | 68 | 1013.3 |
| 20260507065016 | 67 | 225 | 3.5 | 6.1 | 0.00 | 0.07 | 0.05 | 69 | 1013.2 |
| 20260507064038 | 66 | 227 | 0.9 | 1.7 | 0.00 | 0.08 | 0.05 | 79 | 1013.2 |
| 20260507063030 | 64 | 259 | 1.7 | 2.6 | 0.00 | 0.08 | 0.05 | 83 | 1013.1 |
| 20260507062027 | 64 | 289 | 2.6 | 3.5 | 0.00 | 0.08 | 0.05 | 82 | 1013.0 |
| 20260507061024 | 63 | 250 | 1.7 | 2.6 | 0.00 | 0.11 | 0.05 | 86 | 1013.1 |
| 20260507060023 | 62 | 261 | 0.9 | 1.7 | 0.00 | 0.13 | 0.05 | 88 | 1013.0 |
| 20260507055018 | 61 | 257 | 1.7 | 2.6 | 0.00 | 0.13 | 0.05 | 90 | 1013.2 |
| 20260507054036 | 61 | 275 | 1.7 | 1.7 | 0.00 | 0.13 | 0.05 | 89 | 1013.1 |
| 20260507053032 | 61 | 254 | 0.9 | 1.7 | 0.00 | 0.13 | 0.05 | 89 | 1013.0 |
| 20260507052029 | 60 | 222 | 0.0 | 0.9 | 0.00 | 0.13 | 0.05 | 90 | 1013.0 |
| 20260507051026 | 60 | 224 | 0.0 | 0.9 | 0.00 | 0.14 | 0.05 | 91 | 1012.9 |
| 20260507050104 | 60 | 230 | 0.9 | 1.7 | 0.00 | 0.14 | 0.05 | 92 | 1012.8 |
| 20260507045020 | 60 | 235 | 0.0 | 0.9 | 0.00 | 0.14 | 0.05 | 92 | 1012.7 |
| 20260507044018 | 60 | 235 | 0.0 | 0.9 | 0.00 | 0.14 | 0.05 | 92 | 1012.5 |
| 20260507043035 | 59 | 235 | 0.0 | 0.9 | 0.00 | 0.14 | 0.05 | 92 | 1012.4 |
| 20260507042032 | 59 | 0.0 | 0.0 | 0.00 | 0.14 | 0.05 | 91 | 1012.4 | |
| 20260507041049 | 59 | 235 | 0.0 | 0.0 | 0.01 | 0.14 | 0.05 | 91 | 1012.3 |
| 20260507040028 | 59 | 173 | 0.9 | 1.7 | 0.02 | 0.14 | 0.05 | 91 | 1012.2 |
| 20260507035023 | 60 | 143 | 0.9 | 2.6 | 0.03 | 0.14 | 0.05 | 90 | 1012.0 |
| 20260507034020 | 60 | 137 | 1.7 | 3.5 | 0.03 | 0.14 | 0.05 | 90 | 1012.0 |
| 20260507033017 | 60 | 136 | 1.7 | 2.6 | 0.03 | 0.14 | 0.05 | 89 | 1012.0 |
| 20260507032034 | 60 | 149 | 0.0 | 0.9 | 0.04 | 0.14 | 0.05 | 89 | 1012.1 |
| 20260507031032 | 61 | 138 | 1.7 | 1.7 | 0.03 | 0.13 | 0.04 | 87 | 1012.1 |
| 20260507030029 | 61 | 199 | 1.7 | 1.7 | 0.02 | 0.12 | 0.03 | 83 | 1012.0 |
| 20260507025026 | 61 | 181 | 1.7 | 2.6 | 0.02 | 0.11 | 0.02 | 85 | 1012.1 |
| 20260507024023 | 61 | 183 | 0.9 | 0.9 | 0.02 | 0.11 | 0.02 | 83 | 1011.9 |
| 20260507023041 | 62 | 255 | 0.9 | 1.7 | 0.02 | 0.11 | 0.02 | 81 | 1011.7 |
| 20260507022037 | 63 | 306 | 0.9 | 1.7 | 0.01 | 0.10 | 0.01 | 77 | 1011.4 |
| 20260507021034 | 63 | 309 | 1.7 | 2.6 | 0.01 | 0.10 | 0.01 | 77 | 1011.5 |
| 20260507020051 | 63 | 266 | 0.9 | 1.7 | 0.01 | 0.10 | 0.01 | 76 | 1011.7 |
| 20260507015050 | 62 | 244 | 0.9 | 1.7 | 0.00 | 0.09 | 0.00 | 78 | 1011.7 |
| 20260507014025 | 63 | 258 | 0.9 | 1.7 | 0.00 | 0.09 | 0.00 | 75 | 1011.7 |
| 20260507013023 | 63 | 276 | 1.7 | 3.5 | 0.00 | 0.09 | 0.00 | 76 | 1011.7 |
| 20260507012020 | 62 | 281 | 0.9 | 1.7 | 0.00 | 0.09 | 0.00 | 76 | 1011.5 |
| 20260507011017 | 63 | 282 | 0.9 | 1.7 | 0.00 | 0.09 | 0.00 | 76 | 1011.6 |
| 20260507010034 | 62 | 229 | 1.7 | 1.7 | 0.00 | 0.09 | 0.00 | 76 | 1011.5 |
| 20260507005031 | 62 | 123 | 0.0 | 0.9 | 0.00 | 0.09 | 0.00 | 77 | 1011.6 |
| 20260507004028 | 62 | 123 | 0.9 | 1.7 | 0.00 | 0.09 | 0.00 | 76 | 1011.5 |
| 20260507003027 | 63 | 150 | 1.7 | 1.7 | 0.00 | 0.09 | 0.00 | 74 | 1011.5 |
| 20260507002022 | 64 | 253 | 0.9 | 1.7 | 0.00 | 0.09 | 0.00 | 70 | 1011.7 |
| 20260507001019 | 64 | 225 | 0.9 | 2.6 | 0.00 | 0.09 | 0.00 | 69 | 1011.6 |
| 20260507000017 | 65 | 174 | 1.7 | 1.7 | 0.00 | 0.09 | 0.00 | 68 | 1011.7 |
| 20260506235034 | 65 | 104 | 0.9 | 1.7 | 0.00 | 0.09 | 0.00 | 68 | 1011.8 |
| 20260506234036 | 65 | 7 | 1.7 | 2.6 | 0.00 | 0.09 | 0.00 | 67 | 1011.7 |
| 20260506233028 | 65 | 274 | 0.9 | 1.7 | 0.00 | 0.09 | 0.00 | 67 | 1011.8 |
| 20260506232025 | 65 | 193 | 0.9 | 1.7 | 0.00 | 0.09 | 0.00 | 66 | 1011.6 |
| 20260506231022 | 65 | 222 | 0.9 | 2.6 | 0.00 | 0.09 | 0.00 | 65 | 1011.7 |
| 20260506230019 | 66 | 211 | 0.9 | 1.7 | 0.00 | 0.09 | 0.00 | 65 | 1011.7 |
| 20260506225016 | 66 | 347 | 1.7 | 2.6 | 0.00 | 0.09 | 0.00 | 64 | 1011.8 |
| 20260506224038 | 65 | 2 | 2.6 | 3.5 | 0.00 | 0.09 | 0.00 | 64 | 1011.8 |
| 20260506223051 | 65 | 206 | 0.9 | 3.5 | 0.00 | 0.09 | 0.00 | 64 | 1011.9 |
| 20260506222028 | 65 | 172 | 1.7 | 3.5 | 0.00 | 0.09 | 0.00 | 66 | 1011.8 |
| 20260506221025 | 65 | 205 | 0.9 | 2.6 | 0.00 | 0.09 | 0.00 | 66 | 1011.8 |
| 20260506220022 | 66 | 248 | 1.7 | 6.1 | 0.00 | 0.09 | 0.09 | 65 | 1011.7 |
| 20260506215019 | 66 | 260 | 1.7 | 5.2 | 0.00 | 0.09 | 0.09 | 64 | 1011.7 |
| 20260506214032 | 66 | 282 | 0.9 | 3.5 | 0.00 | 0.09 | 0.09 | 63 | 1011.6 |
| 20260506213054 | 65 | 262 | 0.9 | 1.7 | 0.00 | 0.09 | 0.09 | 63 | 1011.6 |
| 20260506212031 | 66 | 242 | 0.9 | 1.7 | 0.00 | 0.09 | 0.09 | 63 | 1011.8 |
| 20260506211028 | 66 | 263 | 2.6 | 5.2 | 0.00 | 0.09 | 0.09 | 61 | 1011.8 |
| 20260506210027 | 66 | 243 | 0.9 | 2.6 | 0.00 | 0.09 | 0.09 | 63 | 1011.9 |
| 20260506205022 | 66 | 226 | 1.7 | 3.5 | 0.00 | 0.09 | 0.09 | 62 | 1011.9 |
| 20260506204021 | 67 | 231 | 2.6 | 6.1 | 0.00 | 0.09 | 0.09 | 61 | 1011.7 |
| 20260506203017 | 67 | 243 | 3.5 | 5.2 | 0.00 | 0.09 | 0.09 | 59 | 1011.8 |
| 20260506202034 | 66 | 189 | 6.1 | 9.6 | 0.00 | 0.09 | 0.09 | 61 | 1011.7 |
| 20260506201031 | 65 | 208 | 2.6 | 7.8 | 0.00 | 0.09 | 0.09 | 69 | 1011.7 |
| 20260506200028 | 65 | 132 | 0.9 | 1.7 | 0.00 | 0.09 | 0.09 | 74 | 1011.7 |
| 20260506195025 | 65 | 124 | 0.9 | 1.7 | 0.00 | 0.09 | 0.09 | 70 | 1011.6 |
| 20260506194102 | 65 | 216 | 0.9 | 3.5 | 0.00 | 0.09 | 0.09 | 69 | 1011.6 |
| 20260506193019 | 65 | 202 | 1.7 | 2.6 | 0.00 | 0.09 | 0.09 | 70 | 1011.3 |
| 20260506192016 | 65 | 179 | 0.9 | 1.7 | 0.00 | 0.09 | 0.09 | 71 | 1011.3 |
| 20260506191114 | 66 | 143 | 0.9 | 1.7 | 0.00 | 0.09 | 0.09 | 72 | 1011.2 |
| 20260506190030 | 66 | 104 | 1.7 | 2.6 | 0.00 | 0.09 | 0.09 | 70 | 1011.0 |
| 20260506185027 | 65 | 118 | 0.9 | 0.9 | 0.00 | 0.09 | 0.09 | 72 | 1010.9 |
| 20260506184024 | 65 | 223 | 1.7 | 2.6 | 0.00 | 0.09 | 0.09 | 73 | 1010.8 |
| 20260506183041 | 66 | 230 | 0.9 | 2.6 | 0.00 | 0.09 | 0.09 | 73 | 1010.6 |
| 20260506182018 | 66 | 265 | 1.7 | 3.5 | 0.00 | 0.09 | 0.09 | 69 | 1010.7 |
| 20260506181035 | 66 | 240 | 0.9 | 1.7 | 0.00 | 0.09 | 0.09 | 70 | 1010.8 |
| 20260506180031 | 66 | 177 | 1.7 | 2.6 | 0.00 | 0.09 | 0.09 | 71 | 1010.8 |
| 20260506175030 | 66 | 160 | 2.6 | 3.5 | 0.00 | 0.09 | 0.09 | 72 | 1010.6 |
| 20260506174042 | 66 | 189 | 2.6 | 3.5 | 0.00 | 0.09 | 0.09 | 72 | 1010.6 |
| 20260506173022 | 66 | 190 | 3.5 | 6.1 | 0.01 | 0.09 | 0.09 | 72 | 1010.6 |
| 20260506172019 | 66 | 187 | 2.6 | 5.2 | 0.02 | 0.09 | 0.09 | 73 | 1010.5 |
| 20260506171017 | 66 | 174 | 2.6 | 5.2 | 0.02 | 0.09 | 0.09 | 74 | 1010.5 |
| 20260506170033 | 66 | 170 | 3.5 | 5.2 | 0.02 | 0.09 | 0.09 | 74 | 1010.5 |
| 20260506165030 | 66 | 180 | 1.7 | 2.6 | 0.02 | 0.09 | 0.09 | 76 | 1010.6 |
| 20260506164027 | 67 | 273 | 2.6 | 7.8 | 0.02 | 0.09 | 0.09 | 71 | 1010.7 |
| 20260506163024 | 71 | 184 | 4.3 | 7.8 | 0.01 | 0.08 | 0.08 | 62 | 1010.6 |
| 20260506162021 | 73 | 173 | 2.6 | 4.3 | 0.00 | 0.07 | 0.07 | 53 | 1010.4 |
| 20260506161018 | 73 | 216 | 0.9 | 2.6 | 0.00 | 0.07 | 0.07 | 52 | 1010.3 |
| 20260506160035 | 73 | 265 | 1.7 | 3.5 | 0.00 | 0.07 | 0.07 | 51 | 1010.4 |
| 20260506155052 | 71 | 239 | 2.6 | 6.1 | 0.00 | 0.07 | 0.07 | 58 | 1010.3 |
| 20260506154029 | 69 | 99 | 0.9 | 3.5 | 0.00 | 0.07 | 0.07 | 73 | 1010.3 |
| 20260506153025 | 69 | 95 | 4.3 | 7.8 | 0.00 | 0.07 | 0.07 | 74 | 1010.2 |
| 20260506152022 | 70 | 102 | 1.7 | 3.5 | 0.00 | 0.07 | 0.07 | 71 | 1010.3 |
| 20260506151021 | 69 | 94 | 1.7 | 6.1 | 0.00 | 0.07 | 0.07 | 72 | 1010.3 |
| 20260506150016 | 68 | 89 | 2.6 | 7.0 | 0.00 | 0.07 | 0.07 | 75 | 1010.1 |
| 20260506145053 | 68 | 101 | 3.5 | 7.8 | 0.00 | 0.07 | 0.07 | 76 | 1010.2 |
| 20260506144030 | 70 | 109 | 5.2 | 12.2 | 0.00 | 0.07 | 0.07 | 70 | 1010.2 |
| 20260506143047 | 69 | 130 | 2.6 | 7.0 | 0.00 | 0.07 | 0.07 | 70 | 1010.1 |
| 20260506142045 | 69 | 126 | 2.6 | 7.8 | 0.00 | 0.07 | 0.07 | 73 | 1010.1 |
| 20260506141021 | 69 | 105 | 3.5 | 7.8 | 0.00 | 0.07 | 0.07 | 72 | 1010.2 |
| 20260506140018 | 69 | 112 | 3.5 | 8.7 | 0.00 | 0.07 | 0.07 | 71 | 1010.4 |
| 20260506135035 | 70 | 91 | 3.5 | 7.0 | 0.00 | 0.07 | 0.07 | 70 | 1010.5 |
| 20260506134032 | 70 | 83 | 2.6 | 5.2 | 0.00 | 0.07 | 0.07 | 70 | 1010.5 |
| 20260506133110 | 69 | 99 | 3.5 | 6.1 | 0.00 | 0.07 | 0.07 | 72 | 1010.7 |
| 20260506132026 | 70 | 94 | 3.5 | 7.0 | 0.00 | 0.07 | 0.07 | 71 | 1010.7 |
| 20260506131023 | 70 | 100 | 6.1 | 12.2 | 0.00 | 0.07 | 0.07 | 71 | 1010.8 |
| 20260506130020 | 70 | 107 | 2.6 | 6.1 | 0.00 | 0.07 | 0.07 | 70 | 1010.9 |
| 20260506125016 | 68 | 102 | 3.5 | 9.6 | 0.00 | 0.07 | 0.07 | 74 | 1010.9 |
| 20260506124033 | 67 | 139 | 1.7 | 5.2 | 0.00 | 0.07 | 0.07 | 75 | 1011.2 |
| 20260506123031 | 68 | 112 | 7.0 | 12.2 | 0.00 | 0.07 | 0.07 | 73 | 1010.9 |
| 20260506122027 | 68 | 93 | 7.0 | 12.2 | 0.00 | 0.07 | 0.07 | 72 | 1011.0 |
| 20260506121024 | 67 | 117 | 3.5 | 7.8 | 0.00 | 0.07 | 0.07 | 73 | 1010.9 |
| 20260506120022 | 67 | 104 | 4.3 | 9.6 | 0.00 | 0.07 | 0.07 | 72 | 1010.9 |
| 20260506115018 | 68 | 104 | 5.2 | 11.3 | 0.00 | 0.07 | 0.07 | 70 | 1010.8 |
| 20260506114035 | 68 | 94 | 4.3 | 11.3 | 0.00 | 0.07 | 0.07 | 70 | 1011.0 |
| 20260506113033 | 69 | 108 | 5.2 | 9.6 | 0.00 | 0.07 | 0.07 | 70 | 1010.9 |
| 20260506112028 | 68 | 112 | 3.5 | 8.7 | 0.00 | 0.07 | 0.07 | 74 | 1010.9 |
| 20260506111025 | 67 | 94 | 5.2 | 13.0 | 0.00 | 0.07 | 0.07 | 78 | 1011.0 |
| 20260506110022 | 68 | 93 | 7.0 | 13.9 | 0.00 | 0.07 | 0.07 | 77 | 1010.9 |
| 20260506105019 | 68 | 102 | 6.1 | 13.0 | 0.00 | 0.07 | 0.07 | 77 | 1011.1 |
| 20260506104016 | 68 | 103 | 6.1 | 11.3 | 0.00 | 0.07 | 0.07 | 76 | 1011.1 |
| 20260506103053 | 69 | 114 | 6.1 | 14.8 | 0.00 | 0.07 | 0.07 | 69 | 1011.3 |
| 20260506102029 | 68 | 122 | 5.2 | 11.3 | 0.00 | 0.07 | 0.07 | 69 | 1011.4 |
| 20260506101026 | 67 | 114 | 7.8 | 14.8 | 0.00 | 0.07 | 0.07 | 72 | 1011.4 |
| 20260506100023 | 67 | 106 | 5.2 | 13.0 | 0.00 | 0.07 | 0.07 | 75 | 1011.5 |
| 20260506095020 | 66 | 102 | 4.3 | 8.7 | 0.00 | 0.07 | 0.07 | 76 | 1011.7 |
| 20260506094042 | 67 | 103 | 5.2 | 8.7 | 0.00 | 0.07 | 0.07 | 73 | 1011.7 |
| 20260506093034 | 67 | 101 | 5.2 | 8.7 | 0.00 | 0.07 | 0.07 | 71 | 1011.7 |
| 20260506092031 | 68 | 129 | 3.5 | 7.8 | 0.00 | 0.07 | 0.07 | 64 | 1011.6 |
| 20260506091027 | 69 | 148 | 3.5 | 6.1 | 0.00 | 0.07 | 0.07 | 63 | 1011.6 |
| 20260506090024 | 68 | 160 | 2.6 | 6.1 | 0.00 | 0.07 | 0.07 | 62 | 1011.4 |
| 20260506085043 | 68 | 132 | 1.7 | 5.2 | 0.00 | 0.07 | 0.07 | 56 | 1011.4 |
| 20260506084023 | 68 | 125 | 2.6 | 7.0 | 0.00 | 0.07 | 0.07 | 58 | 1011.4 |
| 20260506083035 | 69 | 131 | 2.6 | 7.0 | 0.00 | 0.07 | 0.07 | 62 | 1011.6 |